星链-34585 (STARLINK-34585)

导读

STARLINK-34585是美国于2025年7月8日发射的星链(Starlink)系列卫星,隶属于SpaceX公司的星链互联网星座项目。星链旨在为全球提供高速低延迟宽带互联网服务,该卫星的发射进一步扩充了星链星座的在轨卫星规模,推进了项目的全球覆盖部署进程。

Basic Information
目录编号:
64779
目录名称:
STARLINK-34585
国际标识:
2025-147AA
轨道中心:
EARTH
卫星名称:
星链-34585
卫星全名:
星链-34585 (STARLINK-34585)
卫星状态:
在轨 (已飞行340 天)
发射日期:
2025-07-08 UTC
国别 :
美国 (US)
星等 :
--
Orbit Information
数据来源 国际轨道数据 AOE轨道数据
星历时间 2026-06-13T15:00:11+0800
16小时前
查看轨道信息
2026-06-10T06:00:00+0800
4天前
查看轨道信息
半长轴 6840.838km 6840.876km
偏心率 0.0001089 0.0001645
轨道倾角 53.158° 53.157°
近地点辐角 101.048° 86.897°
升交点赤经 157.638° 173.415°
平近点角 259.064° 339.190°
近地点 461.956km 461.613km
远地点 463.446km 463.865km
周期 93.848分钟 93.848分钟
每日圈数 15.34401 15.343882
Detailed Information
固有亮度:
5
最大亮度:
2.5
卫星平台:
Starlink V1.0
覆盖范围:
全球
运营商:
太空探索技术公司
运营商所在国:
美国
制造商(研发单位):
太空探索技术公司
制造商所在国:
美国
使用方式:
暂无
Satellite Introduction
Starlink 计划是 SpaceX 推出的全球卫星互联网项目,通过发射低轨道卫星,为全球尤其是偏远地区提供高速、低延迟的互联网服务。自 2019 年起,Starlink 已部署数千颗卫星,旨在缩小全球数字鸿沟,推动互联网普及。该项目还为军事、航空等行业提供通信支持,带来广泛经济效益。
2D Orbit Map
3D Orbit Map
Orbit Altitude Analysis Chart
Orbit Inclination Analysis Chart
Orbit Comprehensive Analysis Chart
View Comprehensive Chart